| time (UTC) | temp F | wind direction | speed MPH | gust MPH | rain 1hr in | rain 24hr in | rain mn in | humidity % | barometer mb |
| 20260905134344 | 60 | 136 | 2.0 | 6.0 | 0.00 | 0.00 | 0.00 | 76 | 956.9 |
| 20260905133844 | 58 | 234 | 2.0 | 5.0 | 0.00 | 0.00 | 0.00 | 77 | 956.9 |
| 20260905133344 | 58 | 272 | 2.0 | 5.0 | 0.00 | 0.00 | 0.00 | 81 | 957.0 |
| 20260905132844 | 58 | 329 | 2.0 | 5.0 | 0.00 | 0.00 | 0.00 | 80 | 956.8 |
| 20260905132345 | 58 | 164 | 2.0 | 8.0 | 0.00 | 0.00 | 0.00 | 84 | 956.9 |
| 20260905131844 | 58 | 262 | 2.0 | 8.0 | 0.00 | 0.00 | 0.00 | 80 | 956.9 |
| 20260905131344 | 59 | 81 | 2.0 | 7.0 | 0.00 | 0.00 | 0.00 | 81 | 957.0 |
| 20260905130844 | 58 | 120 | 3.0 | 9.0 | 0.00 | 0.00 | 0.00 | 83 | 957.0 |
| 20260905130344 | 57 | 255 | 4.0 | 9.0 | 0.00 | 0.00 | 0.00 | 81 | 956.9 |
| 20260905125844 | 57 | 255 | 3.0 | 8.0 | 0.00 | 0.00 | 0.00 | 81 | 956.8 |
| 20260905125344 | 56 | 282 | 4.0 | 8.0 | 0.00 | 0.00 | 0.00 | 85 | 956.9 |
| 20260905124844 | 56 | 247 | 4.0 | 9.0 | 0.00 | 0.00 | 0.00 | 86 | 956.8 |
| 20260905124344 | 55 | 249 | 4.0 | 11.0 | 0.00 | 0.00 | 0.00 | 91 | 956.9 |
| 20260905123843 | 54 | 247 | 4.0 | 11.0 | 0.00 | 0.00 | 0.00 | 91 | 956.8 |
| 20260905123343 | 55 | 243 | 4.0 | 10.0 | 0.00 | 0.00 | 0.00 | 93 | 956.8 |
| 20260905122843 | 54 | 260 | 4.0 | 7.0 | 0.00 | 0.00 | 0.00 | 96 | 956.6 |
| 20260905122343 | 54 | 295 | 3.0 | 7.0 | 0.00 | 0.00 | 0.00 | 94 | 956.6 |
| 20260905121843 | 53 | 268 | 3.0 | 7.0 | 0.00 | 0.00 | 0.00 | 95 | 956.6 |
| 20260905121343 | 54 | 300 | 3.0 | 6.0 | 0.00 | 0.00 | 0.00 | 95 | 956.6 |
| 20260905120843 | 54 | 286 | 3.0 | 6.0 | 0.00 | 0.00 | 0.00 | 93 | 956.5 |
| 20260905120343 | 55 | 283 | 3.0 | 7.0 | 0.00 | 0.00 | 0.00 | 88 | 956.5 |
| 20260905115843 | 56 | 282 | 3.0 | 7.0 | 0.00 | 0.00 | 0.00 | 80 | 956.5 |
| 20260905115343 | 57 | 239 | 2.0 | 7.0 | 0.00 | 0.00 | 0.00 | 76 | 956.6 |
| 20260905114843 | 58 | 222 | 2.0 | 6.0 | 0.00 | 0.00 | 0.00 | 78 | 956.5 |
| 20260905114343 | 60 | 211 | 1.0 | 5.0 | 0.00 | 0.00 | 0.00 | 80 | 956.6 |
| 20260905113843 | 61 | 226 | 2.0 | 8.0 | 0.00 | 0.00 | 0.00 | 80 | 956.4 |
| 20260905113313 | 60 | 249 | 2.0 | 8.0 | 0.00 | 0.00 | 0.00 | 77 | 956.3 |
| 20260905112813 | 61 | 55 | 2.0 | 8.0 | 0.00 | 0.00 | 0.00 | 82 | 956.5 |
| 20260905112313 | 61 | 121 | 2.0 | 8.0 | 0.00 | 0.00 | 0.00 | 78 | 956.2 |
| 20260905111812 | 61 | 141 | 2.0 | 8.0 | 0.00 | 0.00 | 0.00 | 82 | 956.3 |
| 20260905111312 | 60 | 136 | 2.0 | 8.0 | 0.00 | 0.00 | 0.00 | 84 | 956.3 |
| 20260905110812 | 59 | 91 | 2.0 | 7.0 | 0.00 | 0.00 | 0.00 | 87 | 956.1 |
| 20260905110312 | 58 | 128 | 2.0 | 7.0 | 0.00 | 0.00 | 0.00 | 88 | 956.1 |
| 20260905105812 | 57 | 81 | 1.0 | 5.0 | 0.00 | 0.00 | 0.00 | 91 | 956.0 |
| 20260905105312 | 57 | 167 | 1.0 | 5.0 | 0.00 | 0.00 | 0.00 | 92 | 956.0 |
| 20260905104812 | 56 | 326 | 2.0 | 6.0 | 0.00 | 0.00 | 0.00 | 93 | 956.0 |
| 20260905104312 | 56 | 153 | 1.0 | 6.0 | 0.00 | 0.00 | 0.00 | 94 | 956.0 |
| 20260905103812 | 56 | 155 | 1.0 | 6.0 | 0.00 | 0.00 | 0.00 | 94 | 956.0 |
| 20260905103312 | 56 | 111 | 1.0 | 6.0 | 0.00 | 0.00 | 0.00 | 95 | 956.0 |
| 20260905102812 | 56 | 16 | 1.0 | 4.0 | 0.00 | 0.00 | 0.00 | 96 | 956.0 |
| 20260905102312 | 55 | 234 | 1.0 | 5.0 | 0.00 | 0.00 | 0.00 | 95 | 956.0 |
| 20260905101812 | 55 | 89 | 1.0 | 5.0 | 0.00 | 0.00 | 0.00 | 95 | 956.0 |
| 20260905101312 | 56 | 154 | 1.0 | 5.0 | 0.00 | 0.00 | 0.00 | 96 | 955.9 |
| 20260905100812 | 56 | 189 | 1.0 | 5.0 | 0.00 | 0.00 | 0.00 | 96 | 955.9 |
| 20260905100312 | 56 | 204 | 1.0 | 5.0 | 0.00 | 0.00 | 0.00 | 96 | 955.8 |
| 20260905095812 | 56 | 84 | 1.0 | 5.0 | 0.00 | 0.00 | 0.00 | 97 | 955.6 |
| 20260905095311 | 56 | 78 | 1.0 | 5.0 | 0.00 | 0.00 | 0.00 | 96 | 955.6 |
| 20260905094811 | 56 | 175 | 1.0 | 5.0 | 0.00 | 0.00 | 0.00 | 97 | 955.6 |
| 20260905094311 | 55 | 169 | 1.0 | 4.0 | 0.00 | 0.00 | 0.00 | 97 | 955.5 |
| 20260905093811 | 55 | 167 | 0.0 | 3.0 | 0.00 | 0.00 | 0.00 | 98 | 955.6 |
| 20260905093311 | 54 | 151 | 1.0 | 4.0 | 0.00 | 0.00 | 0.00 | 97 | 955.4 |
| 20260905092811 | 53 | 174 | 2.0 | 4.0 | 0.00 | 0.00 | 0.00 | 98 | 955.4 |
| 20260905092311 | 53 | 339 | 2.0 | 5.0 | 0.00 | 0.00 | 0.00 | 97 | 955.2 |
| 20260905091811 | 53 | 277 | 2.0 | 5.0 | 0.00 | 0.00 | 0.00 | 98 | 955.3 |
| 20260905091311 | 53 | 16 | 2.0 | 5.0 | 0.00 | 0.00 | 0.00 | 97 | 955.3 |
| 20260905090811 | 53 | 45 | 2.0 | 6.0 | 0.00 | 0.00 | 0.00 | 99 | 955.4 |
| 20260905090311 | 52 | 2 | 2.0 | 6.0 | 0.00 | 0.00 | 0.00 | 10 | 955.3 |
| 20260905085811 | 52 | 37 | 2.0 | 5.0 | 0.00 | 0.00 | 0.00 | 10 | 955.1 |
| 20260905085311 | 51 | 170 | 2.0 | 5.0 | 0.00 | 0.00 | 0.00 | 10 | 955.1 |
| 20260905084811 | 51 | 314 | 3.0 | 6.0 | 0.00 | 0.00 | 0.00 | 10 | 955.0 |
| 20260905084311 | 51 | 325 | 3.0 | 7.0 | 0.00 | 0.00 | 0.00 | 10 | 955.0 |
| 20260905083810 | 51 | 356 | 3.0 | 7.0 | 0.00 | 0.00 | 0.00 | 10 | 955.0 |
| 20260905083310 | 51 | 260 | 2.0 | 5.0 | 0.00 | 0.00 | 0.00 | 10 | 954.9 |
| 20260905082810 | 51 | 339 | 2.0 | 5.0 | 0.00 | 0.00 | 0.00 | 10 | 954.9 |
| 20260905082310 | 51 | 272 | 2.0 | 5.0 | 0.00 | 0.00 | 0.00 | 10 | 954.9 |
| 20260905081810 | 51 | 259 | 2.0 | 4.0 | 0.00 | 0.00 | 0.00 | 99 | 954.8 |
| 20260905081310 | 51 | 331 | 1.0 | 4.0 | 0.00 | 0.00 | 0.00 | 99 | 954.8 |
| 20260905080810 | 52 | 9 | 1.0 | 3.0 | 0.00 | 0.00 | 0.00 | 10 | 954.8 |
| 20260905080310 | 52 | 148 | 1.0 | 3.0 | 0.00 | 0.00 | 0.00 | 10 | 954.8 |
| 20260905075810 | 51 | 50 | 1.0 | 3.0 | 0.00 | 0.00 | 0.00 | 10 | 954.8 |
| 20260905075310 | 51 | 238 | 1.0 | 3.0 | 0.00 | 0.00 | 0.00 | 10 | 954.8 |
| 20260905074810 | 51 | 53 | 1.0 | 4.0 | 0.00 | 0.00 | 0.00 | 10 | 954.7 |
| 20260905074310 | 50 | 349 | 1.0 | 6.0 | 0.00 | 0.00 | 0.00 | 10 | 954.7 |
| 20260905073810 | 50 | 93 | 2.0 | 6.0 | 0.00 | 0.00 | 0.00 | 10 | 954.7 |
| 20260905073310 | 50 | 338 | 2.0 | 5.0 | 0.00 | 0.00 | 0.00 | 10 | 954.6 |
| 20260905072809 | 50 | 35 | 2.0 | 5.0 | 0.00 | 0.00 | 0.00 | 10 | 954.5 |
| 20260905072309 | 49 | 0 | 2.0 | 5.0 | 0.00 | 0.00 | 0.00 | 10 | 954.4 |
| 20260905071809 | 49 | 344 | 3.0 | 5.0 | 0.00 | 0.00 | 0.00 | 10 | 954.4 |
| 20260905071309 | 49 | 247 | 3.0 | 5.0 | 0.00 | 0.00 | 0.00 | 10 | 954.3 |
| 20260905070809 | 49 | 248 | 3.0 | 6.0 | 0.00 | 0.00 | 0.00 | 10 | 954.2 |
| 20260905070309 | 49 | 281 | 3.0 | 6.0 | 0.00 | 0.00 | 0.00 | 10 | 954.2 |
| 20260905065809 | 50 | 242 | 1.0 | 6.0 | 0.00 | 0.00 | 0.00 | 99 | 954.2 |
| 20260905065309 | 51 | 240 | 1.0 | 3.0 | 0.00 | 0.00 | 0.00 | 99 | 954.3 |
| 20260905064809 | 50 | 144 | 1.0 | 3.0 | 0.00 | 0.00 | 0.00 | 10 | 954.3 |
| 20260905064309 | 50 | 247 | 1.0 | 3.0 | 0.00 | 0.00 | 0.00 | 99 | 954.1 |
| 20260905063809 | 50 | 87 | 0.0 | 1.0 | 0.00 | 0.00 | 0.00 | 10 | 954.2 |
| 20260905063309 | 49 | 68 | 0.0 | 2.0 | 0.00 | 0.00 | 0.00 | 10 | 954.1 |
| 20260905062809 | 49 | 189 | 1.0 | 3.0 | 0.00 | 0.00 | 0.00 | 10 | 954.1 |
| 20260905062309 | 48 | 159 | 1.0 | 3.0 | 0.00 | 0.00 | 0.00 | 10 | 954.1 |
| 20260905061809 | 49 | 94 | 0.0 | 2.0 | 0.00 | 0.00 | 0.00 | 10 | 954.0 |
| 20260905061309 | 48 | 216 | 0.0 | 2.0 | 0.00 | 0.00 | 0.00 | 10 | 954.0 |
| 20260905060809 | 48 | 146 | 1.0 | 2.0 | 0.00 | 0.00 | 0.00 | 10 | 953.9 |
| 20260905060308 | 48 | 115 | 1.0 | 4.0 | 0.00 | 0.00 | 0.00 | 10 | 953.9 |
| 20260905055808 | 47 | 56 | 2.0 | 4.0 | 0.00 | 0.00 | 0.00 | 10 | 953.9 |
| 20260905055308 | 47 | 333 | 2.0 | 4.0 | 0.00 | 0.00 | 0.00 | 10 | 953.8 |
| 20260905054808 | 47 | 282 | 2.0 | 4.0 | 0.00 | 0.00 | 0.00 | 10 | 953.8 |
| 20260905054308 | 47 | 295 | 2.0 | 4.0 | 0.00 | 0.00 | 0.00 | 10 | 953.8 |
| 20260905053808 | 47 | 238 | 1.0 | 3.0 | 0.00 | 0.00 | 0.00 | 10 | 953.7 |
| 20260905053308 | 47 | 248 | 1.0 | 2.0 | 0.00 | 0.00 | 0.00 | 10 | 953.6 |
| 20260905052738 | 47 | 219 | 1.0 | 3.0 | 0.00 | 0.00 | 0.00 | 10 | 953.8 |
| 20260905052238 | 47 | 119 | 1.0 | 3.0 | 0.00 | 0.00 | 0.00 | 10 | 953.7 |
| 20260905051738 | 47 | 132 | 1.0 | 4.0 | 0.00 | 0.00 | 0.00 | 10 | 953.7 |
| 20260905051238 | 47 | 2 | 1.0 | 4.0 | 0.00 | 0.00 | 0.00 | 10 | 953.6 |
| 20260905050738 | 47 | 306 | 1.0 | 2.0 | 0.00 | 0.00 | 0.00 | 10 | 953.6 |
| 20260905050238 | 46 | 344 | 1.0 | 2.0 | 0.00 | 0.00 | 0.00 | 10 | 953.5 |
| 20260905045738 | 46 | 258 | 1.0 | 3.0 | 0.00 | 0.00 | 0.00 | 10 | 953.6 |
| 20260905045238 | 46 | 306 | 1.0 | 3.0 | 0.00 | 0.00 | 0.00 | 99 | 953.5 |
| 20260905044738 | 46 | 259 | 1.0 | 3.0 | 0.00 | 0.00 | 0.00 | 98 | 953.5 |
| 20260905044237 | 47 | 89 | 1.0 | 3.0 | 0.00 | 0.00 | 0.00 | 98 | 953.4 |
| 20260905043737 | 47 | 147 | 1.0 | 3.0 | 0.00 | 0.00 | 0.00 | 98 | 953.4 |
| 20260905043237 | 47 | 128 | 1.0 | 2.0 | 0.00 | 0.00 | 0.00 | 98 | 953.4 |
| 20260905042737 | 47 | 107 | 0.0 | 2.0 | 0.00 | 0.00 | 0.00 | 98 | 953.4 |
| 20260905042237 | 47 | 139 | 0.0 | 2.0 | 0.00 | 0.00 | 0.00 | 99 | 953.5 |
| 20260905041737 | 47 | 120 | 0.0 | 3.0 | 0.00 | 0.00 | 0.00 | 99 | 953.5 |
| 20260905041237 | 46 | 95 | 1.0 | 4.0 | 0.00 | 0.00 | 0.00 | 99 | 953.5 |
| 20260905040737 | 47 | 118 | 1.0 | 4.0 | 0.00 | 0.00 | 0.00 | 98 | 953.5 |
| 20260905040237 | 47 | 93 | 0.0 | 2.0 | 0.00 | 0.00 | 0.00 | 99 | 953.5 |
| 20260905035737 | 47 | 156 | 0.0 | 1.0 | 0.00 | 0.00 | 0.00 | 98 | 953.4 |
| 20260905035237 | 46 | 147 | 0.0 | 2.0 | 0.00 | 0.00 | 0.00 | 99 | 953.4 |
| 20260905034737 | 46 | 222 | 0.0 | 2.0 | 0.00 | 0.00 | 0.00 | 99 | 953.4 |
| 20260905034237 | 46 | 90 | 1.0 | 2.0 | 0.00 | 0.00 | 0.00 | 99 | 953.4 |
| 20260905033737 | 45 | 229 | 1.0 | 3.0 | 0.00 | 0.00 | 0.00 | 99 | 953.3 |
| 20260905033236 | 45 | 81 | 1.0 | 3.0 | 0.00 | 0.00 | 0.00 | 99 | 953.2 |
| 20260905032736 | 45 | 53 | 1.0 | 2.0 | 0.00 | 0.00 | 0.00 | 10 | 953.2 |
| 20260905032236 | 45 | 150 | 1.0 | 3.0 | 0.00 | 0.00 | 0.00 | 10 | 953.1 |
| 20260905031736 | 44 | 104 | 1.0 | 3.0 | 0.00 | 0.00 | 0.00 | 10 | 953.2 |
| 20260905031236 | 44 | 103 | 1.0 | 4.0 | 0.00 | 0.00 | 0.00 | 10 | 953.1 |
| 20260905030736 | 44 | 35 | 2.0 | 4.0 | 0.00 | 0.00 | 0.00 | 10 | 953.2 |
| 20260905030236 | 44 | 301 | 3.0 | 5.0 | 0.00 | 0.00 | 0.00 | 10 | 953.1 |
| 20260905025736 | 44 | 308 | 3.0 | 5.0 | 0.00 | 0.00 | 0.00 | 10 | 953.1 |
| 20260905025236 | 43 | 317 | 2.0 | 5.0 | 0.00 | 0.00 | 0.00 | 10 | 953.1 |
| 20260905024736 | 43 | 333 | 1.0 | 4.0 | 0.00 | 0.00 | 0.00 | 10 | 953.1 |
| 20260905024236 | 43 | 258 | 1.0 | 3.0 | 0.00 | 0.00 | 0.00 | 10 | 952.9 |
| 20260905023736 | 43 | 245 | 1.0 | 3.0 | 0.00 | 0.00 | 0.00 | 10 | 952.9 |
| 20260905023236 | 43 | 257 | 1.0 | 2.0 | 0.00 | 0.00 | 0.00 | 10 | 952.9 |
| 20260905022736 | 43 | 169 | 1.0 | 4.0 | 0.00 | 0.00 | 0.00 | 10 | 952.8 |
| 20260905022236 | 43 | 131 | 3.0 | 6.0 | 0.00 | 0.00 | 0.00 | 10 | 952.8 |
| 20260905021735 | 43 | 3 | 3.0 | 6.0 | 0.00 | 0.00 | 0.00 | 10 | 952.8 |
| 20260905021235 | 43 | 313 | 4.0 | 6.0 | 0.00 | 0.00 | 0.00 | 10 | 952.8 |
| 20260905020735 | 42 | 298 | 4.0 | 6.0 | 0.00 | 0.00 | 0.00 | 10 | 952.8 |
| 20260905020235 | 42 | 292 | 4.0 | 6.0 | 0.00 | 0.00 | 0.00 | 10 | 952.8 |
| 20260905015735 | 42 | 341 | 3.0 | 6.0 | 0.00 | 0.00 | 0.00 | 10 | 953.0 |
| 20260905015235 | 43 | 301 | 3.0 | 6.0 | 0.00 | 0.00 | 0.00 | 10 | 952.9 |
| 20260905014735 | 43 | 281 | 4.0 | 6.0 | 0.00 | 0.00 | 0.00 | 10 | 952.8 |
| 20260905014235 | 44 | 295 | 4.0 | 6.0 | 0.00 | 0.00 | 0.00 | 10 | 953.0 |
| 20260905013235 | 44 | 325 | 2.0 | 4.0 | 0.00 | 0.00 | 0.00 | 10 | 953.0 |
| 20260905012735 | 44 | 238 | 1.0 | 3.0 | 0.00 | 0.00 | 0.00 | 10 | 952.9 |
| 20260905012235 | 45 | 230 | 0.0 | 2.0 | 0.00 | 0.00 | 0.00 | 10 | 953.0 |
| 20260905011735 | 45 | 167 | 0.0 | 2.0 | 0.00 | 0.00 | 0.00 | 10 | 952.9 |
| 20260905011235 | 44 | 135 | 1.0 | 3.0 | 0.00 | 0.00 | 0.00 | 10 | 953.0 |
| 20260905010734 | 44 | 113 | 1.0 | 3.0 | 0.00 | 0.00 | 0.00 | 10 | 953.0 |
| 20260905010234 | 44 | 267 | 0.0 | 3.0 | 0.00 | 0.00 | 0.00 | 10 | 953.0 |
| 20260905005734 | 44 | 286 | 0.0 | 1.0 | 0.00 | 0.00 | 0.00 | 10 | 953.1 |
| 20260905005234 | 44 | 235 | 0.0 | 2.0 | 0.00 | 0.00 | 0.00 | 10 | 953.1 |
| 20260905004734 | 44 | 133 | 0.0 | 2.0 | 0.00 | 0.00 | 0.00 | 10 | 953.1 |
| 20260905004234 | 44 | 226 | 0.0 | 2.0 | 0.00 | 0.00 | 0.00 | 10 | 952.9 |
| 20260905003734 | 44 | 343 | 1.0 | 3.0 | 0.00 | 0.00 | 0.00 | 10 | 952.9 |
| 20260905003234 | 44 | 288 | 2.0 | 4.0 | 0.00 | 0.00 | 0.00 | 10 | 952.8 |
| 20260905002734 | 44 | 258 | 3.0 | 5.0 | 0.00 | 0.00 | 0.00 | 10 | 952.8 |
| 20260905002234 | 44 | 279 | 4.0 | 5.0 | 0.00 | 0.00 | 0.00 | 10 | 952.8 |
| 20260905001734 | 44 | 273 | 4.0 | 5.0 | 0.00 | 0.00 | 0.00 | 10 | 952.8 |
| 20260905001234 | 44 | 274 | 4.0 | 5.0 | 0.00 | 0.00 | 0.00 | 10 | 952.7 |
| 20260905000734 | 44 | 260 | 4.0 | 5.0 | 0.00 | 0.00 | 0.00 | 10 | 952.8 |
| 20260905000233 | 44 | 272 | 4.0 | 6.0 | 0.00 | 0.00 | 0.00 | 10 | 952.8 |
| 20260904235733 | 44 | 262 | 4.0 | 6.0 | 0.00 | 0.00 | 0.00 | 10 | 952.8 |
| 20260904235233 | 44 | 260 | 4.0 | 6.0 | 0.00 | 0.00 | 0.00 | 10 | 952.8 |
| 20260904234733 | 44 | 255 | 4.0 | 5.0 | 0.00 | 0.00 | 0.00 | 10 | 952.9 |
| 20260904234233 | 44 | 269 | 4.0 | 5.0 | 0.00 | 0.00 | 0.00 | 10 | 952.9 |
| 20260904233733 | 44 | 264 | 4.0 | 5.0 | 0.00 | 0.00 | 0.00 | 10 | 952.9 |
| 20260904233233 | 45 | 275 | 3.0 | 4.0 | 0.00 | 0.00 | 0.00 | 10 | 952.8 |
| 20260904232733 | 45 | 259 | 3.0 | 4.0 | 0.00 | 0.00 | 0.00 | 10 | 952.9 |
| 20260904232233 | 44 | 257 | 3.0 | 4.0 | 0.00 | 0.00 | 0.00 | 10 | 952.9 |
| 20260904231733 | 43 | 270 | 2.0 | 4.0 | 0.00 | 0.00 | 0.00 | 10 | 953.0 |
| 20260904231233 | 43 | 274 | 1.0 | 3.0 | 0.00 | 0.00 | 0.00 | 10 | 953.0 |
| 20260904230733 | 43 | 280 | 1.0 | 2.0 | 0.00 | 0.00 | 0.00 | 10 | 953.0 |
| 20260904230233 | 44 | 275 | 1.0 | 3.0 | 0.00 | 0.00 | 0.00 | 10 | 953.0 |
| 20260904225733 | 44 | 258 | 1.0 | 3.0 | 0.00 | 0.00 | 0.00 | 10 | 953.0 |
| 20260904225232 | 44 | 240 | 1.0 | 3.0 | 0.00 | 0.00 | 0.00 | 10 | 953.0 |
| 20260904224732 | 44 | 248 | 1.0 | 4.0 | 0.00 | 0.00 | 0.00 | 10 | 953.0 |
| 20260904224232 | 44 | 248 | 1.0 | 4.0 | 0.00 | 0.00 | 0.00 | 10 | 953.0 |
| 20260904223732 | 44 | 167 | 1.0 | 4.0 | 0.00 | 0.00 | 0.00 | 10 | 952.9 |
| 20260904223232 | 44 | 296 | 2.0 | 3.0 | 0.00 | 0.00 | 0.00 | 10 | 952.8 |
| 20260904222732 | 45 | 297 | 2.0 | 3.0 | 0.00 | 0.00 | 0.00 | 10 | 952.9 |
| 20260904222232 | 45 | 289 | 2.0 | 4.0 | 0.00 | 0.00 | 0.00 | 10 | 952.8 |
| 20260904221732 | 45 | 285 | 3.0 | 4.0 | 0.00 | 0.00 | 0.00 | 10 | 952.9 |
| 20260904221232 | 45 | 297 | 3.0 | 4.0 | 0.00 | 0.00 | 0.00 | 10 | 952.9 |
| 20260904220732 | 45 | 279 | 3.0 | 4.0 | 0.00 | 0.00 | 0.00 | 10 | 952.9 |
| 20260904220232 | 45 | 295 | 3.0 | 4.0 | 0.00 | 0.00 | 0.00 | 10 | 952.9 |
| 20260904215732 | 45 | 298 | 3.0 | 5.0 | 0.00 | 0.00 | 0.00 | 10 | 952.8 |
| 20260904215232 | 45 | 291 | 3.0 | 5.0 | 0.00 | 0.00 | 0.00 | 10 | 952.9 |
| 20260904214732 | 45 | 300 | 3.0 | 4.0 | 0.00 | 0.00 | 0.00 | 10 | 952.9 |
| 20260904214232 | 45 | 303 | 3.0 | 4.0 | 0.00 | 0.00 | 0.00 | 10 | 953.0 |
| 20260904213732 | 45 | 310 | 3.0 | 4.0 | 0.00 | 0.00 | 0.00 | 10 | 953.0 |
| 20260904213231 | 45 | 304 | 3.0 | 4.0 | 0.00 | 0.00 | 0.00 | 10 | 953.0 |
| 20260904212731 | 45 | 310 | 3.0 | 4.0 | 0.00 | 0.00 | 0.00 | 10 | 952.9 |
| 20260904212231 | 45 | 323 | 3.0 | 3.0 | 0.00 | 0.00 | 0.00 | 10 | 952.8 |
| 20260904211731 | 45 | 308 | 3.0 | 3.0 | 0.00 | 0.00 | 0.00 | 10 | 952.9 |
| 20260904211231 | 45 | 322 | 3.0 | 3.0 | 0.00 | 0.00 | 0.00 | 10 | 952.8 |
| 20260904210731 | 45 | 310 | 2.0 | 3.0 | 0.00 | 0.00 | 0.00 | 10 | 952.9 |
| 20260904210231 | 45 | 309 | 3.0 | 4.0 | 0.00 | 0.00 | 0.00 | 10 | 952.8 |
| 20260904205731 | 45 | 307 | 3.0 | 4.0 | 0.00 | 0.00 | 0.00 | 10 | 952.9 |
| 20260904205231 | 45 | 294 | 3.0 | 4.0 | 0.00 | 0.00 | 0.00 | 10 | 952.9 |
| 20260904204731 | 45 | 313 | 3.0 | 4.0 | 0.00 | 0.00 | 0.00 | 10 | 953.0 |
| 20260904204231 | 45 | 322 | 3.0 | 5.0 | 0.00 | 0.00 | 0.00 | 10 | 953.0 |
| 20260904203731 | 45 | 336 | 3.0 | 5.0 | 0.00 | 0.00 | 0.00 | 10 | 952.9 |
| 20260904203231 | 45 | 308 | 3.0 | 5.0 | 0.00 | 0.00 | 0.00 | 10 | 952.9 |
| 20260904202731 | 46 | 327 | 3.0 | 5.0 | 0.00 | 0.00 | 0.00 | 10 | 952.8 |
| 20260904202231 | 46 | 331 | 4.0 | 6.0 | 0.00 | 0.00 | 0.00 | 99 | 952.7 |
| 20260904201730 | 46 | 326 | 4.0 | 6.0 | 0.00 | 0.00 | 0.00 | 99 | 952.7 |
| 20260904201230 | 46 | 315 | 4.0 | 6.0 | 0.00 | 0.00 | 0.00 | 99 | 952.7 |
| 20260904200730 | 46 | 300 | 4.0 | 6.0 | 0.00 | 0.00 | 0.00 | 99 | 952.7 |
| 20260904200230 | 46 | 305 | 4.0 | 6.0 | 0.00 | 0.00 | 0.00 | 99 | 952.7 |
| 20260904195730 | 46 | 304 | 4.0 | 7.0 | 0.00 | 0.00 | 0.00 | 99 | 952.8 |
| 20260904195230 | 47 | 311 | 4.0 | 7.0 | 0.00 | 0.00 | 0.00 | 98 | 952.8 |
| 20260904194730 | 47 | 303 | 5.0 | 8.0 | 0.00 | 0.00 | 0.00 | 98 | 952.7 |
| 20260904194230 | 47 | 305 | 5.0 | 8.0 | 0.00 | 0.00 | 0.00 | 98 | 952.7 |
| 20260904193730 | 47 | 308 | 4.0 | 8.0 | 0.00 | 0.00 | 0.00 | 98 | 952.7 |
| 20260904193230 | 47 | 311 | 4.0 | 7.0 | 0.00 | 0.00 | 0.00 | 98 | 952.9 |
| 20260904192730 | 47 | 307 | 4.0 | 6.0 | 0.00 | 0.00 | 0.00 | 98 | 952.8 |
| 20260904192230 | 47 | 306 | 4.0 | 7.0 | 0.00 | 0.00 | 0.00 | 98 | 952.8 |
| 20260904191730 | 47 | 310 | 4.0 | 7.0 | 0.00 | 0.00 | 0.00 | 98 | 952.8 |
| 20260904191230 | 47 | 314 | 4.0 | 5.0 | 0.00 | 0.00 | 0.00 | 97 | 952.8 |
| 20260904190730 | 47 | 311 | 4.0 | 5.0 | 0.00 | 0.00 | 0.00 | 97 | 952.9 |
| 20260904190229 | 47 | 332 | 4.0 | 5.0 | 0.00 | 0.00 | 0.00 | 96 | 952.8 |
| 20260904185729 | 48 | 305 | 4.0 | 5.0 | 0.00 | 0.00 | 0.00 | 96 | 952.8 |
| 20260904185229 | 48 | 311 | 4.0 | 6.0 | 0.00 | 0.00 | 0.00 | 95 | 952.8 |
| 20260904184729 | 48 | 307 | 4.0 | 6.0 | 0.00 | 0.00 | 0.00 | 94 | 952.9 |
| 20260904184229 | 48 | 313 | 4.0 | 6.0 | 0.00 | 0.00 | 0.00 | 94 | 952.9 |
| 20260904183729 | 49 | 314 | 4.0 | 7.0 | 0.00 | 0.00 | 0.00 | 93 | 953.0 |
| 20260904183229 | 49 | 308 | 4.0 | 7.0 | 0.00 | 0.00 | 0.00 | 91 | 952.9 |
| 20260904182729 | 49 | 302 | 4.0 | 8.0 | 0.00 | 0.00 | 0.00 | 91 | 952.8 |
| 20260904182229 | 49 | 304 | 4.0 | 8.0 | 0.00 | 0.00 | 0.00 | 90 | 952.8 |
| 20260904181729 | 50 | 317 | 4.0 | 8.0 | 0.00 | 0.00 | 0.00 | 88 | 952.8 |
| 20260904181229 | 50 | 314 | 4.0 | 6.0 | 0.00 | 0.00 | 0.00 | 88 | 952.8 |
| 20260904180729 | 50 | 315 | 4.0 | 5.0 | 0.00 | 0.00 | 0.00 | 87 | 952.8 |
| 20260904180229 | 50 | 311 | 4.0 | 7.0 | 0.00 | 0.00 | 0.00 | 86 | 952.9 |
| 20260904175729 | 51 | 320 | 4.0 | 7.0 | 0.00 | 0.00 | 0.00 | 85 | 952.8 |
| 20260904175229 | 51 | 303 | 3.0 | 5.0 | 0.00 | 0.00 | 0.00 | 84 | 952.7 |
| 20260904174729 | 51 | 302 | 3.0 | 5.0 | 0.00 | 0.00 | 0.00 | 83 | 952.7 |
| 20260904174228 | 51 | 302 | 4.0 | 6.0 | 0.00 | 0.00 | 0.00 | 83 | 952.6 |
| 20260904173728 | 52 | 301 | 3.0 | 6.0 | 0.00 | 0.00 | 0.00 | 81 | 952.6 |
| 20260904173228 | 52 | 312 | 3.0 | 5.0 | 0.00 | 0.00 | 0.00 | 81 | 952.7 |
| 20260904172728 | 52 | 309 | 3.0 | 6.0 | 0.00 | 0.00 | 0.00 | 81 | 952.5 |
| 20260904171728 | 53 | 323 | 4.0 | 8.0 | 0.00 | 0.00 | 0.00 | 79 | 952.6 |
| 20260904171228 | 53 | 308 | 4.0 | 7.0 | 0.00 | 0.00 | 0.00 | 78 | 952.6 |
| 20260904170728 | 53 | 300 | 4.0 | 7.0 | 0.00 | 0.00 | 0.00 | 78 | 952.6 |
| 20260904170228 | 53 | 309 | 4.0 | 7.0 | 0.00 | 0.00 | 0.00 | 79 | 952.6 |
| 20260904165728 | 54 | 312 | 4.0 | 8.0 | 0.00 | 0.00 | 0.00 | 78 | 952.7 |
| 20260904165228 | 54 | 315 | 4.0 | 8.0 | 0.00 | 0.00 | 0.00 | 78 | 952.7 |
| 20260904164728 | 54 | 336 | 4.0 | 7.0 | 0.00 | 0.00 | 0.00 | 77 | 952.7 |
| 20260904164228 | 54 | 294 | 4.0 | 7.0 | 0.00 | 0.00 | 0.00 | 77 | 952.8 |
| 20260904163728 | 55 | 297 | 4.0 | 8.0 | 0.00 | 0.00 | 0.00 | 78 | 952.7 |
| 20260904163227 | 55 | 310 | 4.0 | 9.0 | 0.00 | 0.00 | 0.00 | 77 | 952.8 |
| 20260904162727 | 55 | 344 | 5.0 | 9.0 | 0.00 | 0.00 | 0.00 | 75 | 952.8 |
| 20260904162227 | 55 | 349 | 5.0 | 9.0 | 0.00 | 0.00 | 0.00 | 75 | 952.8 |
| 20260904161727 | 55 | 326 | 5.0 | 9.0 | 0.00 | 0.00 | 0.00 | 73 | 952.7 |
| 20260904161227 | 55 | 350 | 4.0 | 9.0 | 0.00 | 0.00 | 0.00 | 72 | 952.8 |
| 20260904160727 | 56 | 26 | 4.0 | 9.0 | 0.00 | 0.00 | 0.00 | 71 | 952.8 |
| 20260904160227 | 56 | 294 | 4.0 | 9.0 | 0.00 | 0.00 | 0.00 | 71 | 952.8 |
| 20260904155727 | 56 | 328 | 4.0 | 9.0 | 0.00 | 0.00 | 0.00 | 68 | 952.8 |
| 20260904155227 | 56 | 24 | 3.0 | 7.0 | 0.00 | 0.00 | 0.00 | 69 | 952.8 |
| 20260904154727 | 56 | 334 | 4.0 | 7.0 | 0.00 | 0.00 | 0.00 | 71 | 952.8 |
| 20260904154227 | 56 | 23 | 4.0 | 8.0 | 0.00 | 0.00 | 0.00 | 69 | 952.7 |
| 20260904153727 | 56 | 336 | 4.0 | 9.0 | 0.00 | 0.00 | 0.00 | 69 | 952.7 |
| 20260904153227 | 56 | 287 | 4.0 | 9.0 | 0.00 | 0.00 | 0.00 | 68 | 952.9 |
| 20260904152727 | 56 | 324 | 4.0 | 7.0 | 0.00 | 0.00 | 0.00 | 68 | 952.9 |
| 20260904152226 | 56 | 305 | 3.0 | 7.0 | 0.00 | 0.00 | 0.00 | 69 | 953.0 |
| 20260904151726 | 56 | 335 | 3.0 | 7.0 | 0.00 | 0.00 | 0.00 | 68 | 953.0 |
| 20260904151226 | 56 | 282 | 3.0 | 6.0 | 0.00 | 0.00 | 0.00 | 68 | 952.9 |
| 20260904150726 | 57 | 326 | 3.0 | 8.0 | 0.00 | 0.00 | 0.00 | 67 | 953.0 |
| 20260904150226 | 57 | 19 | 4.0 | 8.0 | 0.00 | 0.00 | 0.00 | 68 | 953.1 |
| 20260904145726 | 57 | 284 | 4.0 | 10.0 | 0.00 | 0.00 | 0.00 | 69 | 953.1 |
| 20260904145226 | 57 | 70 | 4.0 | 10.0 | 0.00 | 0.00 | 0.00 | 69 | 953.1 |
| 20260904144726 | 57 | 315 | 4.0 | 10.0 | 0.00 | 0.00 | 0.00 | 71 | 953.1 |
| 20260904144226 | 57 | 353 | 4.0 | 10.0 | 0.00 | 0.00 | 0.00 | 69 | 953.0 |
| 20260904143726 | 56 | 309 | 5.0 | 11.0 | 0.00 | 0.00 | 0.00 | 69 | 953.0 |
| 20260904143226 | 57 | 46 | 5.0 | 11.0 | 0.00 | 0.00 | 0.00 | 68 | 953.0 |
| 20260904142726 | 57 | 315 | 6.0 | 14.0 | 0.00 | 0.00 | 0.00 | 66 | 953.2 |
| 20260904142226 | 57 | 288 | 5.0 | 15.0 | 0.00 | 0.00 | 0.00 | 67 | 953.1 |
| 20260904141726 | 57 | 36 | 5.0 | 15.0 | 0.00 | 0.00 | 0.00 | 66 | 953.2 |
| 20260904141226 | 57 | 296 | 5.0 | 9.0 | 0.00 | 0.00 | 0.00 | 68 | 953.3 |
| 20260904140726 | 56 | 318 | 5.0 | 9.0 | 0.00 | 0.00 | 0.00 | 72 | 953.2 |
| 20260904140225 | 56 | 319 | 5.0 | 11.0 | 0.00 | 0.00 | 0.00 | 73 | 953.2 |
| 20260904135725 | 56 | 6 | 5.0 | 11.0 | 0.00 | 0.00 | 0.00 | 72 | 953.2 |
| 20260904135225 | 58 | 329 | 5.0 | 11.0 | 0.00 | 0.00 | 0.00 | 69 | 953.3 |
| 20260904134725 | 58 | 351 | 6.0 | 11.0 | 0.00 | 0.00 | 0.00 | 69 | 953.3 |